Regional Weather Roundup
Issued by NWS

Current Version | Previous Version | Text Only | Print | Product List | Glossary On
Versions: 1 2 3 4 5 6 7 8 9 10 11 12 13 14 15 16 17 18 19 20 21 22 23 24 25 26 27 28 29 30 31 32 33 34 35 36 37 38 39 40 41 42 43 44 45 46 47 48 49
000
ASUS45 KCYS 300510
RWRWY

WYOMING REGIONAL WEATHER ROUNDUP
NATIONAL WEATHER SERVICE CHEYENNE WY
1100 PM MDT MON JUN 29 2015

NOTE:  "FAIR" INDICATES FEW OR NO CLOUDS BELOW 12,000 FEET
WITH NO SIGNIFICANT WEATHER AND/OR OBSTRUCTIONS TO VISIBILITY.

WYZ001-300600-
YELLOWSTONE NATIONAL PARK

CITY           SKY/WX    TMP DP  RH WIND       PRES   REMARKS
LK YELLOWSTONE   N/A     62  46  55 CALM      30.48R
W YELLOWSTONE  NOT AVBL

$$
WYZ002>013-054>058-071-098>099-300600-
NORTHERN WYOMING

CITY           SKY/WX    TMP DP  RH WIND       PRES   REMARKS
JACKSON        MOCLDY    72  50  46 NW3       30.37R
CODY           FAIR      72  52  49 N8        30.19S
GREYBULL       FAIR      85  49  28 N17       30.05S
WORLAND        FAIR      82  48  30 CALM      30.07R
SHERIDAN       FAIR      67  57  70 N5        30.08R
BUFFALO        FAIR      74  46  36 W9        30.15S
GILLETTE       FAIR      66  55  67 S12       30.10F
HULETT         FAIR      64  54  68 S10       30.11S
NEWCASTLE      FAIR      68  54  60 CALM      30.13S

$$
WYZ014>020-022>026-101>103-300600-
CENTRAL WYOMING

CITY           SKY/WX    TMP DP  RH WIND       PRES   REMARKS
BIG PINEY      FAIR      70  49  47 CALM      30.31R
PINEDALE       FAIR      68  46  45 CALM      30.32S
DUBOIS         RAIN      68  46  45 NW12      30.35R
LANDER         FAIR      72  48  42 SE3       30.16S
RIVERTON       FAIR      76  43  30 E6        30.17S
CASPER         FAIR      69  45  41 E7        30.18S
DOUGLAS        FAIR      66  51  58 SE6       30.18S

$$
WYZ021-027>030-104>119-300600-
SOUTHERN WYOMING

CITY           SKY/WX    TMP DP  RH WIND       PRES   REMARKS
EVANSTON       FAIR      72  44  36 E13       30.30R
KEMMERER       FAIR      73  36  25 CALM      30.32R
FORT BRIDGER   CLEAR     73  43  33 S9        30.32R
ROCK SPRINGS   FAIR      76  35  22 E9        30.27R
DIXON          FAIR      68  42  38 NE8       30.29S
RAWLINS        FAIR      66  39  37 N3        30.30S
SARATOGA       FAIR      64  43  45 S9        30.32F
LARAMIE        FAIR      61  43  51 S8        30.36S
CHEYENNE       FAIR      64  49  57 W9        30.28R
TORRINGTON     FAIR      68  55  63 E9        30.13R
PINE BLUFFS    FAIR      63  55  77 W3        30.22R

$$



USA.gov is the U.S. government's official web portal to all federal, state and local government web resources and services.